{"data":{"norad_id":67027,"epoch":"2026-09-20T21:49:49.622304Z","epoch_age_seconds":46310,"freshness":"FRESH","line1":"1 67027U 25293AA  26263.90960211  .00002757  00000+0  23873-3 0  9996","line2":"2 67027  70.0011 322.0859 0003911 271.5201  88.5510 14.98334693 44133","mean_motion":14.98334693,"eccentricity":0.0003911,"inclination_deg":70.0011,"raan_deg":322.0859,"arg_perigee_deg":271.5201,"mean_anomaly_deg":88.551,"bstar":0.00023873,"rev_number":4413,"period_min":96.106698104734,"perigee_km":569.32316350318,"apogee_km":574.75959303066,"semimajor_km":6950.1783782669,"source":"CELESTRAK","updated_at":"2026-09-21T09:00:36.073428Z"}}